Time,TemperatureF,DewpointF,PressureIn,WindDirection,WindDirectionDegrees,WindSpeedMPH,WindSpeedGustMPH,Humidity,HourlyPrecipIn,Conditions,Clouds,dailyrainin,SoftwareType,DateUTC
2013-04-15 00:00:00,41.8,36.4,29.78,NNW,336,5.0,17.0,81,0.00,,,0.04,WUHU216DAVISVP2,2013-04-15 04:00:00,
2013-04-15 00:05:00,41.8,36.4,29.78,West,276,11.0,16.0,81,0.00,,,0.00,WUHU216DAVISVP2,2013-04-15 04:05:00,
2013-04-15 00:10:00,41.8,36.4,29.78,West,263,5.0,16.0,81,0.00,,,0.00,WUHU216DAVISVP2,2013-04-15 04:10:00,
2013-04-15 00:15:00,41.7,36.3,29.78,West,280,4.0,16.0,81,0.00,,,0.00,WUHU216DAVISVP2,2013-04-15 04:15:00,
2013-04-15 00:20:00,41.7,36.3,29.78,WNW,284,4.0,16.0,81,0.00,,,0.00,WUHU216DAVISVP2,2013-04-15 04:20:00,
2013-04-15 00:25:00,41.6,36.2,29.77,West,276,15.0,18.0,81,0.00,,,0.00,WUHU216DAVISVP2,2013-04-15 04:25:00,
2013-04-15 00:30:00,41.6,36.2,29.77,NW,326,8.0,18.0,81,0.00,,,0.00,WUHU216DAVISVP2,2013-04-15 04:30:00,
2013-04-15 00:35:00,41.6,36.5,29.77,NW,311,9.0,18.0,82,0.00,,,0.00,WUHU216DAVISVP2,2013-04-15 04:35:00,
2013-04-15 00:40:00,41.4,36.3,29.77,WNW,285,5.0,18.0,82,0.00,,,0.00,WUHU216DAVISVP2,2013-04-15 04:40:00,
2013-04-15 00:45:00,41.4,36.3,29.77,WNW,300,8.0,13.0,82,0.00,,,0.00,WUHU216DAVISVP2,2013-04-15 04:45:00,
2013-04-15 00:50:00,41.3,36.2,29.77,WNW,302,8.0,14.0,82,0.00,,,0.00,WUHU216DAVISVP2,2013-04-15 04:50:00,
2013-04-15 00:55:00,41.1,36.0,29.77,WNW,286,6.0,14.0,82,0.00,,,0.00,WUHU216DAVISVP2,2013-04-15 04:55:00,
2013-04-15 01:00:00,41.0,35.9,29.76,NW,307,3.0,14.0,82,0.00,,,0.00,WUHU216DAVISVP2,2013-04-15 05:00:00,
2013-04-15 01:05:00,40.9,36.1,29.76,NW,305,4.0,14.0,83,0.00,,,0.00,WUHU216DAVISVP2,2013-04-15 05:05:00,
2013-04-15 01:10:00,40.8,36.0,29.76,West,270,7.0,14.0,83,0.00,,,0.00,WUHU216DAVISVP2,2013-04-15 05:10:00,
2013-04-15 01:15:00,40.7,35.9,29.76,WNW,294,6.0,13.0,83,0.00,,,0.00,WUHU216DAVISVP2,2013-04-15 05:15:00,
2013-04-15 01:22:00,40.7,35.9,29.76,NW,316,5.0,13.0,83,0.00,,,0.00,WUHU216DAVISVP2,2013-04-15 05:22:00,
2013-04-15 01:27:00,40.7,35.9,29.76,NW,315,8.0,13.0,83,0.00,,,0.00,WUHU216DAVISVP2,2013-04-15 05:27:00,
2013-04-15 01:30:00,40.7,35.9,29.76,WNW,293,6.0,12.0,83,0.00,,,0.00,WUHU216DAVISVP2,2013-04-15 05:30:00,
2013-04-15 01:32:00,40.7,35.9,29.76,WNW,300,4.0,13.0,83,0.00,,,0.00,WUHU216DAVISVP2,2013-04-15 05:32:00,
2013-04-15 01:37:00,40.7,35.9,29.76,WNW,297,4.0,13.0,83,0.00,,,0.00,WUHU216DAVISVP2,2013-04-15 05:37:00,
2013-04-15 01:42:00,40.6,35.8,29.76,WNW,298,5.0,13.0,83,0.00,,,0.00,WUHU216DAVISVP2,2013-04-15 05:42:00,
2013-04-15 01:47:00,40.6,35.8,29.76,WNW,284,3.0,13.0,83,0.00,,,0.00,WUHU216DAVISVP2,2013-04-15 05:47:00,
2013-04-15 01:52:00,40.5,35.7,29.76,West,263,5.0,14.0,83,0.00,,,0.00,WUHU216DAVISVP2,2013-04-15 05:52:00,
2013-04-15 01:57:00,40.6,35.8,29.76,West,281,4.0,14.0,83,0.00,,,0.00,WUHU216DAVISVP2,2013-04-15 05:57:00,
2013-04-15 02:00:00,40.6,35.8,29.75,WNW,293,6.0,13.0,83,0.00,,,0.00,WUHU216DAVISVP2,2013-04-15 06:00:00,
2013-04-15 02:02:00,40.6,35.8,29.75,West,276,5.0,14.0,83,0.00,,,0.00,WUHU216DAVISVP2,2013-04-15 06:02:00,
2013-04-15 02:07:00,40.6,35.8,29.75,West,281,4.0,13.0,83,0.00,,,0.00,WUHU216DAVISVP2,2013-04-15 06:07:00,
2013-04-15 02:12:00,40.5,35.7,29.75,WNW,283,5.0,13.0,83,0.00,,,0.00,WUHU216DAVISVP2,2013-04-15 06:12:00,
2013-04-15 02:17:00,40.4,35.6,29.75,WNW,301,4.0,12.0,83,0.00,,,0.00,WUHU216DAVISVP2,2013-04-15 06:17:00,
2013-04-15 02:22:00,40.4,35.6,29.75,West,281,3.0,12.0,83,0.00,,,0.00,WUHU216DAVISVP2,2013-04-15 06:22:00,
2013-04-15 02:27:00,40.4,35.6,29.75,WNW,297,3.0,10.0,83,0.00,,,0.00,WUHU216DAVISVP2,2013-04-15 06:27:00,
2013-04-15 02:30:00,40.4,35.9,29.75,WNW,293,5.0,11.0,84,0.00,,,0.00,WUHU216DAVISVP2,2013-04-15 06:30:00,
2013-04-15 02:32:00,40.3,35.8,29.75,WNW,288,5.0,10.0,84,0.00,,,0.00,WUHU216DAVISVP2,2013-04-15 06:32:00,
2013-04-15 02:37:00,40.4,35.9,29.75,West,262,7.0,10.0,84,0.00,,,0.00,WUHU216DAVISVP2,2013-04-15 06:37:00,
2013-04-15 02:42:00,40.4,35.9,29.75,WNW,301,6.0,10.0,84,0.00,,,0.00,WUHU216DAVISVP2,2013-04-15 06:42:00,
2013-04-15 02:47:00,40.4,35.9,29.75,NNW,330,6.0,10.0,84,0.00,,,0.00,WUHU216DAVISVP2,2013-04-15 06:47:00,
2013-04-15 02:52:00,40.4,35.9,29.75,West,263,4.0,10.0,84,0.00,,,0.00,WUHU216DAVISVP2,2013-04-15 06:52:00,
2013-04-15 02:57:00,40.4,35.9,29.75,WNW,302,2.0,10.0,84,0.00,,,0.00,WUHU216DAVISVP2,2013-04-15 06:57:00,
2013-04-15 03:00:00,40.4,35.9,29.75,WNW,293,5.0,10.0,84,0.00,,,0.00,WUHU216DAVISVP2,2013-04-15 07:00:00,
2013-04-15 03:02:00,40.4,35.9,29.75,West,261,4.0,10.0,84,0.00,,,0.00,WUHU216DAVISVP2,2013-04-15 07:02:00,
2013-04-15 03:05:00,40.3,35.8,29.75,WNW,295,5.0,10.0,84,0.00,,,0.00,WUHU216DAVISVP2,2013-04-15 07:05:00,
2013-04-15 03:07:00,40.3,35.8,29.75,West,270,3.0,10.0,84,0.00,,,0.00,WUHU216DAVISVP2,2013-04-15 07:07:00,
2013-04-15 03:10:00,40.3,35.8,29.75,WNW,288,4.0,10.0,84,0.00,,,0.00,WUHU216DAVISVP2,2013-04-15 07:10:00,
2013-04-15 03:11:00,40.3,35.8,29.75,West,263,3.0,10.0,84,0.00,,,0.00,WUHU216DAVISVP2,2013-04-15 07:11:00,
2013-04-15 03:13:00,40.3,35.8,29.75,WNW,284,2.0,10.0,84,0.00,,,0.00,WUHU216DAVISVP2,2013-04-15 07:13:00,
2013-04-15 03:14:00,40.3,35.8,29.75,WNW,294,5.0,10.0,84,0.00,,,0.00,WUHU216DAVISVP2,2013-04-15 07:14:00,
2013-04-15 03:16:00,40.3,35.8,29.75,West,266,2.0,10.0,84,0.00,,,0.00,WUHU216DAVISVP2,2013-04-15 07:16:00,
2013-04-15 03:17:00,40.3,35.8,29.75,WNW,295,8.0,10.0,84,0.00,,,0.00,WUHU216DAVISVP2,2013-04-15 07:17:00,
2013-04-15 03:19:00,40.3,35.8,29.75,WNW,296,5.0,10.0,84,0.00,,,0.00,WUHU216DAVISVP2,2013-04-15 07:19:00,
2013-04-15 03:20:00,40.3,35.8,29.75,West,262,4.0,10.0,84,0.00,,,0.00,WUHU216DAVISVP2,2013-04-15 07:20:00,
2013-04-15 03:25:00,40.3,35.8,29.76,WNW,294,5.0,10.0,84,0.00,,,0.00,WUHU216DAVISVP2,2013-04-15 07:25:00,
2013-04-15 03:26:00,40.4,35.9,29.76,WNW,295,6.0,10.0,84,0.00,,,0.00,WUHU216DAVISVP2,2013-04-15 07:26:00,
2013-04-15 03:28:00,40.4,35.9,29.76,WNW,283,3.0,9.0,84,0.00,,,0.00,WUHU216DAVISVP2,2013-04-15 07:28:00,
2013-04-15 03:29:00,40.4,35.9,29.76,West,276,2.0,9.0,84,0.00,,,0.00,WUHU216DAVISVP2,2013-04-15 07:29:00,
2013-04-15 03:30:00,40.4,35.9,29.76,WNW,293,4.0,9.0,84,0.00,,,0.00,WUHU216DAVISVP2,2013-04-15 07:30:00,
2013-04-15 03:31:00,40.4,35.9,29.76,West,261,1.0,9.0,84,0.00,,,0.00,WUHU216DAVISVP2,2013-04-15 07:31:00,
2013-04-15 03:41:00,40.7,36.2,29.78,West,281,2.0,8.0,84,0.00,,,0.00,WUHU216DAVISVP2,2013-04-15 07:41:00,
2013-04-15 03:46:00,40.8,36.3,29.78,West,270,4.0,8.0,84,0.00,,,0.00,WUHU216DAVISVP2,2013-04-15 07:46:00,
2013-04-15 03:48:00,40.8,36.3,29.78,NW,317,4.0,8.0,84,0.00,,,0.00,WUHU216DAVISVP2,2013-04-15 07:48:00,
2013-04-15 03:53:00,40.9,36.4,29.78,NNE,21,0.0,8.0,84,0.00,,,0.00,WUHU216DAVISVP2,2013-04-15 07:53:00,
2013-04-15 03:58:00,40.9,36.4,29.78,WNW,288,1.0,8.0,84,0.00,,,0.00,WUHU216DAVISVP2,2013-04-15 07:58:00,
2013-04-15 04:00:00,41.0,36.5,29.79,WNW,293,3.0,8.0,84,0.00,,,0.00,WUHU216DAVISVP2,2013-04-15 08:00:00,
2013-04-15 04:03:00,41.0,36.5,29.79,NNE,27,2.0,7.0,84,0.00,,,0.00,WUHU216DAVISVP2,2013-04-15 08:03:00,
2013-04-15 04:08:00,41.0,36.5,29.78,NNW,334,1.0,7.0,84,0.00,,,0.00,WUHU216DAVISVP2,2013-04-15 08:08:00,
2013-04-15 04:13:00,41.0,36.5,29.78,West,278,2.0,9.0,84,0.00,,,0.00,WUHU216DAVISVP2,2013-04-15 08:13:00,
2013-04-15 04:18:00,41.0,36.5,29.79,NW,311,6.0,9.0,84,0.00,,,0.00,WUHU216DAVISVP2,2013-04-15 08:18:00,
2013-04-15 04:23:00,41.1,36.6,29.78,NW,307,4.0,9.0,84,0.00,,,0.00,WUHU216DAVISVP2,2013-04-15 08:23:00,
2013-04-15 04:28:00,41.2,36.7,29.78,WNW,291,5.0,10.0,84,0.00,,,0.00,WUHU216DAVISVP2,2013-04-15 08:28:00,
2013-04-15 04:30:00,41.3,36.8,29.78,NW,315,4.0,10.0,84,0.00,,,0.00,WUHU216DAVISVP2,2013-04-15 08:30:00,
2013-04-15 04:33:00,41.3,36.8,29.78,WNW,300,4.0,10.0,84,0.00,,,0.00,WUHU216DAVISVP2,2013-04-15 08:33:00,
2013-04-15 04:35:00,41.3,36.8,29.78,NW,309,6.0,10.0,84,0.00,,,0.00,WUHU216DAVISVP2,2013-04-15 08:35:00,
2013-04-15 04:40:00,41.4,36.9,29.78,WNW,295,10.0,11.0,84,0.00,,,0.00,WUHU216DAVISVP2,2013-04-15 08:40:00,
2013-04-15 04:45:00,41.2,36.7,29.78,NW,311,6.0,11.0,84,0.00,,,0.00,WUHU216DAVISVP2,2013-04-15 08:45:00,
2013-04-15 04:50:00,40.9,36.4,29.78,WNW,285,5.0,11.0,84,0.00,,,0.00,WUHU216DAVISVP2,2013-04-15 08:50:00,
2013-04-15 04:55:00,40.8,36.3,29.78,WNW,296,8.0,11.0,84,0.00,,,0.00,WUHU216DAVISVP2,2013-04-15 08:55:00,
2013-04-15 05:00:00,40.7,36.5,29.78,WNW,300,3.0,10.0,85,0.00,,,0.00,WUHU216DAVISVP2,2013-04-15 09:00:00,
2013-04-15 05:05:00,40.7,36.5,29.78,WNW,288,7.0,9.0,85,0.00,,,0.00,WUHU216DAVISVP2,2013-04-15 09:05:00,
2013-04-15 05:10:00,40.8,36.6,29.78,WNW,295,2.0,9.0,85,0.00,,,0.00,WUHU216DAVISVP2,2013-04-15 09:10:00,
2013-04-15 05:15:00,40.9,36.7,29.78,West,275,3.0,9.0,85,0.00,,,0.00,WUHU216DAVISVP2,2013-04-15 09:15:00,
2013-04-15 05:20:00,41.2,37.0,29.78,WNW,286,3.0,9.0,85,0.00,,,0.00,WUHU216DAVISVP2,2013-04-15 09:20:00,
2013-04-15 05:25:00,41.3,37.1,29.78,West,267,4.0,10.0,85,0.00,,,0.00,WUHU216DAVISVP2,2013-04-15 09:25:00,
2013-04-15 05:30:00,41.4,37.2,29.78,West,278,3.0,10.0,85,0.00,,,0.00,WUHU216DAVISVP2,2013-04-15 09:30:00,
2013-04-15 05:35:00,41.4,37.2,29.77,WNW,290,3.0,10.0,85,0.00,,,0.00,WUHU216DAVISVP2,2013-04-15 09:35:00,
2013-04-15 05:40:00,41.4,37.2,29.77,WNW,284,3.0,10.0,85,0.00,,,0.00,WUHU216DAVISVP2,2013-04-15 09:40:00,
2013-04-15 05:45:00,41.4,37.2,29.77,NW,305,2.0,8.0,85,0.00,,,0.00,WUHU216DAVISVP2,2013-04-15 09:45:00,
2013-04-15 05:50:00,41.4,37.2,29.76,WNW,288,3.0,8.0,85,0.00,,,0.00,WUHU216DAVISVP2,2013-04-15 09:50:00,
2013-04-15 05:55:00,41.6,37.4,29.76,WNW,302,2.0,8.0,85,0.00,,,0.00,WUHU216DAVISVP2,2013-04-15 09:55:00,
2013-04-15 06:00:00,41.6,37.4,29.76,WNW,288,4.0,8.0,85,0.00,,,0.00,WUHU216DAVISVP2,2013-04-15 10:00:00,
2013-04-15 06:05:00,41.7,37.5,29.75,WNW,296,3.0,8.0,85,0.00,,,0.00,WUHU216DAVISVP2,2013-04-15 10:05:00,
2013-04-15 06:10:00,41.7,37.5,29.75,West,278,3.0,8.0,85,0.00,,,0.00,WUHU216DAVISVP2,2013-04-15 10:10:00,
2013-04-15 06:15:00,41.8,37.6,29.74,West,270,4.0,9.0,85,0.00,,,0.00,WUHU216DAVISVP2,2013-04-15 10:15:00,
2013-04-15 06:20:00,41.9,37.7,29.74,NW,305,4.0,9.0,85,0.00,,,0.00,WUHU216DAVISVP2,2013-04-15 10:20:00,
2013-04-15 06:25:00,42.1,38.2,29.73,WNW,284,3.0,9.0,86,0.00,,,0.00,WUHU216DAVISVP2,2013-04-15 10:25:00,
2013-04-15 06:30:00,42.4,38.5,29.74,NW,316,3.0,9.0,86,0.00,,,0.00,WUHU216DAVISVP2,2013-04-15 10:30:00,
2013-04-15 06:35:00,43.1,39.2,29.74,NW,315,4.0,8.0,86,0.00,,,0.00,WUHU216DAVISVP2,2013-04-15 10:35:00,
2013-04-15 06:40:00,43.9,39.7,29.74,WNW,284,4.0,8.0,85,0.00,,,0.00,WUHU216DAVISVP2,2013-04-15 10:40:00,
2013-04-15 06:45:00,44.4,39.9,29.74,WNW,296,5.0,10.0,84,0.00,,,0.00,WUHU216DAVISVP2,2013-04-15 10:45:00,
2013-04-15 06:50:00,44.8,40.3,29.74,NW,326,3.0,10.0,84,0.00,,,0.00,WUHU216DAVISVP2,2013-04-15 10:50:00,
2013-04-15 06:55:00,45.2,40.3,29.74,NW,323,4.0,10.0,83,0.00,,,0.00,WUHU216DAVISVP2,2013-04-15 10:55:00,
2013-04-15 07:00:00,45.4,40.5,29.75,NW,321,4.0,8.0,83,0.00,,,0.00,WUHU216DAVISVP2,2013-04-15 11:00:00,
2013-04-15 07:05:00,45.8,40.9,29.75,NNW,336,4.0,8.0,83,0.00,,,0.00,WUHU216DAVISVP2,2013-04-15 11:05:00,
2013-04-15 07:10:00,46.1,41.2,29.76,ENE,57,2.0,7.0,83,0.00,,,0.00,WUHU216DAVISVP2,2013-04-15 11:10:00,
2013-04-15 07:15:00,46.3,41.7,29.76,NW,319,3.0,7.0,84,0.00,,,0.00,WUHU216DAVISVP2,2013-04-15 11:15:00,
2013-04-15 07:20:00,46.3,42.0,29.76,NW,307,3.0,7.0,85,0.00,,,0.00,WUHU216DAVISVP2,2013-04-15 11:20:00,
2013-04-15 07:25:00,46.2,41.9,29.76,WNW,300,2.0,6.0,85,0.00,,,0.00,WUHU216DAVISVP2,2013-04-15 11:25:00,
2013-04-15 07:30:00,46.1,41.8,29.76,NW,310,3.0,6.0,85,0.00,,,0.00,WUHU216DAVISVP2,2013-04-15 11:30:00,
2013-04-15 07:35:00,46.1,42.1,29.76,NW,314,1.0,6.0,86,0.00,,,0.00,WUHU216DAVISVP2,2013-04-15 11:35:00,
2013-04-15 07:40:00,46.3,42.3,29.76,WNW,301,3.0,6.0,86,0.00,,,0.00,WUHU216DAVISVP2,2013-04-15 11:40:00,
2013-04-15 07:45:00,46.6,42.3,29.76,WNW,290,2.0,6.0,85,0.00,,,0.00,WUHU216DAVISVP2,2013-04-15 11:45:00,
2013-04-15 07:50:00,46.7,42.4,29.76,West,278,1.0,6.0,85,0.00,,,0.00,WUHU216DAVISVP2,2013-04-15 11:50:00,
2013-04-15 07:55:00,46.7,42.4,29.76,WNW,297,2.0,5.0,85,0.00,,,0.00,WUHU216DAVISVP2,2013-04-15 11:55:00,
2013-04-15 08:00:00,46.8,42.5,29.76,NW,316,3.0,5.0,85,0.00,,,0.00,WUHU216DAVISVP2,2013-04-15 12:00:00,
2013-04-15 08:05:00,46.9,42.6,29.76,WNW,290,1.0,5.0,85,0.00,,,0.00,WUHU216DAVISVP2,2013-04-15 12:05:00,
2013-04-15 08:10:00,47.0,42.7,29.76,NW,305,4.0,5.0,85,0.00,,,0.00,WUHU216DAVISVP2,2013-04-15 12:10:00,
2013-04-15 08:15:00,47.3,42.7,29.76,NW,321,2.0,7.0,84,0.00,,,0.00,WUHU216DAVISVP2,2013-04-15 12:15:00,
2013-04-15 08:20:00,47.6,43.0,29.77,NW,315,2.0,7.0,84,0.00,,,0.00,WUHU216DAVISVP2,2013-04-15 12:20:00,
2013-04-15 08:26:00,48.0,43.4,29.77,NW,316,3.0,7.0,84,0.00,,,0.00,WUHU216DAVISVP2,2013-04-15 12:26:00,
2013-04-15 08:30:00,48.4,43.8,29.77,NW,315,3.0,7.0,84,0.00,,,0.00,WUHU216DAVISVP2,2013-04-15 12:30:00,
2013-04-15 08:31:00,48.3,43.7,29.77,NNW,331,4.0,7.0,84,0.00,,,0.00,WUHU216DAVISVP2,2013-04-15 12:31:00,
2013-04-15 08:36:00,48.8,44.2,29.77,NNW,337,3.0,5.0,84,0.00,,,0.00,WUHU216DAVISVP2,2013-04-15 12:36:00,
2013-04-15 08:41:00,49.2,44.3,29.76,NNW,329,4.0,7.0,83,0.00,,,0.00,WUHU216DAVISVP2,2013-04-15 12:41:00,
2013-04-15 08:46:00,49.9,45.3,29.76,NW,322,2.0,7.0,84,0.00,,,0.00,WUHU216DAVISVP2,2013-04-15 12:46:00,
2013-04-15 08:51:00,50.5,45.8,29.76,North,1,4.0,7.0,84,0.00,,,0.00,WUHU216DAVISVP2,2013-04-15 12:51:00,
2013-04-15 08:57:00,51.1,46.1,29.76,North,350,2.0,9.0,83,0.00,,,0.00,WUHU216DAVISVP2,2013-04-15 12:57:00,
2013-04-15 09:00:00,51.8,46.8,29.76,NNW,338,4.0,10.0,83,0.00,,,0.00,WUHU216DAVISVP2,2013-04-15 13:00:00,
2013-04-15 09:02:00,51.9,46.9,29.76,NNW,339,6.0,10.0,83,0.00,,,0.00,WUHU216DAVISVP2,2013-04-15 13:02:00,
2013-04-15 09:07:00,53.1,47.8,29.76,NNW,335,4.0,10.0,82,0.00,,,0.00,WUHU216DAVISVP2,2013-04-15 13:07:00,
2013-04-15 09:12:00,54.1,48.1,29.76,NNE,18,7.0,10.0,80,0.00,,,0.00,WUHU216DAVISVP2,2013-04-15 13:12:00,
2013-04-15 09:17:00,54.6,48.3,29.76,North,359,6.0,12.0,79,0.00,,,0.00,WUHU216DAVISVP2,2013-04-15 13:17:00,
2013-04-15 09:22:00,54.8,48.1,29.76,NNE,18,5.0,12.0,78,0.00,,,0.00,WUHU216DAVISVP2,2013-04-15 13:22:00,
2013-04-15 09:27:00,55.0,48.3,29.75,NNE,21,10.0,14.0,78,0.00,,,0.00,WUHU216DAVISVP2,2013-04-15 13:27:00,
2013-04-15 09:30:00,55.3,48.6,29.75,NNW,338,6.0,15.0,78,0.00,,,0.00,WUHU216DAVISVP2,2013-04-15 13:30:00,
2013-04-15 09:32:00,55.3,48.6,29.75,NW,323,4.0,15.0,78,0.00,,,0.00,WUHU216DAVISVP2,2013-04-15 13:32:00,
2013-04-15 09:37:00,55.8,48.8,29.74,NNW,333,11.0,15.0,77,0.00,,,0.00,WUHU216DAVISVP2,2013-04-15 13:37:00,
2013-04-15 09:42:00,56.3,49.3,29.74,ENE,58,9.0,14.0,77,0.00,,,0.00,WUHU216DAVISVP2,2013-04-15 13:42:00,
2013-04-15 09:47:00,56.9,49.5,29.75,NNE,28,12.0,16.0,76,0.00,,,0.00,WUHU216DAVISVP2,2013-04-15 13:47:00,
2013-04-15 09:52:00,57.3,49.9,29.75,NNE,29,4.0,16.0,76,0.00,,,0.00,WUHU216DAVISVP2,2013-04-15 13:52:00,
2013-04-15 09:57:00,57.6,49.8,29.75,North,1,6.0,16.0,75,0.00,,,0.00,WUHU216DAVISVP2,2013-04-15 13:57:00,
2013-04-15 10:00:00,57.8,49.6,29.75,NNE,23,7.0,17.0,74,0.00,,,0.00,WUHU216DAVISVP2,2013-04-15 14:00:00,
2013-04-15 10:02:00,57.8,49.7,29.75,NE,56,12.0,17.0,74,0.00,,,0.00,WUHU216DAVISVP2,2013-04-15 14:02:00,
2013-04-15 10:07:00,57.9,50.1,29.75,North,356,6.0,17.0,75,0.00,,,0.00,WUHU216DAVISVP2,2013-04-15 14:07:00,
2013-04-15 10:12:00,58.1,49.9,29.75,NE,38,5.0,18.0,74,0.00,,,0.00,WUHU216DAVISVP2,2013-04-15 14:12:00,
2013-04-15 10:17:00,58.1,49.9,29.75,NE,46,5.0,19.0,74,0.00,,,0.00,WUHU216DAVISVP2,2013-04-15 14:17:00,
2013-04-15 10:23:00,58.2,50.4,29.75,NE,44,11.0,19.0,75,0.00,,,0.00,WUHU216DAVISVP2,2013-04-15 14:23:00,
2013-04-15 10:28:00,58.2,50.4,29.75,NE,40,10.0,23.0,75,0.00,,,0.00,WUHU216DAVISVP2,2013-04-15 14:28:00,
2013-04-15 10:30:00,58.3,50.0,29.75,NNE,23,9.0,23.0,74,0.00,,,0.00,WUHU216DAVISVP2,2013-04-15 14:30:00,
2013-04-15 10:33:00,58.3,50.2,29.75,NE,39,10.0,23.0,74,0.00,,,0.00,WUHU216DAVISVP2,2013-04-15 14:33:00,
2013-04-15 10:38:00,58.3,50.2,29.75,NE,34,14.0,22.0,74,0.00,,,0.00,WUHU216DAVISVP2,2013-04-15 14:38:00,
2013-04-15 10:43:00,58.4,50.6,29.75,NE,48,8.0,22.0,75,0.00,,,0.00,WUHU216DAVISVP2,2013-04-15 14:43:00,
2013-04-15 10:48:00,58.4,50.3,29.75,NE,44,11.0,22.0,74,0.00,,,0.00,WUHU216DAVISVP2,2013-04-15 14:48:00,
2013-04-15 10:53:00,58.4,50.5,29.75,North,351,7.0,22.0,75,0.00,,,0.00,WUHU216DAVISVP2,2013-04-15 14:53:00,
2013-04-15 10:58:00,58.4,50.6,29.76,NE,36,7.0,20.0,75,0.00,,,0.00,WUHU216DAVISVP2,2013-04-15 14:58:00,
2013-04-15 11:00:00,58.4,50.5,29.76,NE,45,10.0,22.0,75,0.00,,,0.00,WUHU216DAVISVP2,2013-04-15 15:00:00,
2013-04-15 11:03:00,58.4,50.6,29.75,NNW,329,6.0,20.0,75,0.00,,,0.00,WUHU216DAVISVP2,2013-04-15 15:03:00,
2013-04-15 11:08:00,58.5,50.7,29.74,NE,46,11.0,21.0,75,0.00,,,0.00,WUHU216DAVISVP2,2013-04-15 15:08:00,
2013-04-15 11:13:00,58.7,50.9,29.74,NE,56,7.0,22.0,75,0.00,,,0.00,WUHU216DAVISVP2,2013-04-15 15:13:00,
2013-04-15 11:18:00,58.9,51.1,29.74,North,7,9.0,22.0,75,0.00,,,0.00,WUHU216DAVISVP2,2013-04-15 15:18:00,
2013-04-15 11:23:00,59.3,51.5,29.74,ENE,63,4.0,21.0,75,0.00,,,0.00,WUHU216DAVISVP2,2013-04-15 15:23:00,
2013-04-15 11:28:00,60.0,51.8,29.74,NNW,341,8.0,21.0,74,0.00,,,0.00,WUHU216DAVISVP2,2013-04-15 15:28:00,
2013-04-15 11:30:00,60.1,51.4,29.74,NNE,23,9.0,22.0,73,0.00,,,0.00,WUHU216DAVISVP2,2013-04-15 15:30:00,
2013-04-15 11:33:00,60.1,51.5,29.74,NE,44,16.0,21.0,73,0.00,,,0.00,WUHU216DAVISVP2,2013-04-15 15:33:00,
2013-04-15 11:38:00,60.2,51.6,29.75,NE,49,15.0,21.0,73,0.00,,,0.00,WUHU216DAVISVP2,2013-04-15 15:38:00,
2013-04-15 11:43:00,60.2,51.6,29.75,NE,36,8.0,20.0,73,0.00,,,0.00,WUHU216DAVISVP2,2013-04-15 15:43:00,
2013-04-15 11:48:00,60.1,51.4,29.76,NE,44,9.0,22.0,73,0.00,,,0.00,WUHU216DAVISVP2,2013-04-15 15:48:00,
2013-04-15 11:53:00,60.2,51.9,29.76,NE,49,6.0,22.0,74,0.00,,,0.00,WUHU216DAVISVP2,2013-04-15 15:53:00,
2013-04-15 11:58:00,60.5,52.2,29.76,NE,41,4.0,21.0,74,0.00,,,0.00,WUHU216DAVISVP2,2013-04-15 15:58:00,
2013-04-15 12:00:00,60.8,52.1,29.76,NE,45,10.0,22.0,73,0.00,,,0.00,WUHU216DAVISVP2,2013-04-15 16:00:00,
2013-04-15 12:03:00,61.1,52.5,29.76,NE,40,12.0,21.0,73,0.00,,,0.00,WUHU216DAVISVP2,2013-04-15 16:03:00,
2013-04-15 12:08:00,61.0,52.4,29.76,ENE,63,17.0,21.0,73,0.00,,,0.00,WUHU216DAVISVP2,2013-04-15 16:08:00,
2013-04-15 12:13:00,60.9,52.3,29.76,NE,39,12.0,21.0,73,0.00,,,0.00,WUHU216DAVISVP2,2013-04-15 16:13:00,
2013-04-15 12:18:00,60.9,52.3,29.76,NNE,27,6.0,21.0,73,0.00,,,0.00,WUHU216DAVISVP2,2013-04-15 16:18:00,
2013-04-15 12:23:00,60.8,52.2,29.76,NE,56,17.0,21.0,73,0.00,,,0.00,WUHU216DAVISVP2,2013-04-15 16:23:00,
2013-04-15 12:28:00,60.8,52.2,29.76,NNE,18,8.0,19.0,73,0.00,,,0.00,WUHU216DAVISVP2,2013-04-15 16:28:00,
2013-04-15 12:30:00,60.8,52.5,29.76,NE,45,10.0,21.0,74,0.00,,,0.00,WUHU216DAVISVP2,2013-04-15 16:30:00,
2013-04-15 12:33:00,61.0,52.8,29.76,ENE,72,9.0,19.0,74,0.00,,,0.00,WUHU216DAVISVP2,2013-04-15 16:33:00,
2013-04-15 12:38:00,61.0,52.3,29.76,NE,51,9.0,19.0,73,0.00,,,0.00,WUHU216DAVISVP2,2013-04-15 16:38:00,
2013-04-15 12:43:00,61.0,52.4,29.76,ENE,64,8.0,19.0,73,0.00,,,0.00,WUHU216DAVISVP2,2013-04-15 16:43:00,
2013-04-15 12:48:00,61.2,53.0,29.76,North,9,13.0,18.0,74,0.00,,,0.00,WUHU216DAVISVP2,2013-04-15 16:48:00,
2013-04-15 12:53:00,61.1,52.5,29.76,NNE,29,9.0,18.0,73,0.00,,,0.00,WUHU216DAVISVP2,2013-04-15 16:53:00,
2013-04-15 12:58:00,61.2,52.6,29.76,ENE,62,5.0,18.0,73,0.00,,,0.00,WUHU216DAVISVP2,2013-04-15 16:58:00,
2013-04-15 13:00:00,61.2,52.5,29.76,NE,45,9.0,19.0,73,0.00,,,0.00,WUHU216DAVISVP2,2013-04-15 17:00:00,
2013-04-15 13:03:00,61.0,52.4,29.76,NE,39,10.0,19.0,73,0.00,,,0.00,WUHU216DAVISVP2,2013-04-15 17:03:00,
2013-04-15 13:08:00,61.0,52.8,29.76,ENE,57,7.0,19.0,74,0.00,,,0.00,WUHU216DAVISVP2,2013-04-15 17:08:00,
2013-04-15 13:13:00,61.3,52.7,29.76,ENE,69,9.0,18.0,73,0.00,,,0.00,WUHU216DAVISVP2,2013-04-15 17:13:00,
2013-04-15 13:18:00,62.0,53.4,29.75,NE,37,12.0,17.0,73,0.00,,,0.00,WUHU216DAVISVP2,2013-04-15 17:18:00,
2013-04-15 13:21:00,62.2,53.6,29.75,NE,44,6.0,17.0,73,0.00,,,0.00,WUHU216DAVISVP2,2013-04-15 17:21:00,
2013-04-15 13:25:00,62.7,53.7,29.75,NE,41,5.0,19.0,72,0.00,,,0.00,WUHU216DAVISVP2,2013-04-15 17:25:00,
2013-04-15 13:30:00,62.6,53.2,29.75,NE,46,8.0,19.0,71,0.00,,,0.00,WUHU216DAVISVP2,2013-04-15 17:30:00,
2013-04-15 13:35:00,62.5,53.5,29.75,ENE,65,5.0,19.0,72,0.00,,,0.00,WUHU216DAVISVP2,2013-04-15 17:35:00,
2013-04-15 13:40:00,62.8,53.4,29.75,NE,51,10.0,18.0,71,0.00,,,0.00,WUHU216DAVISVP2,2013-04-15 17:40:00,
2013-04-15 13:45:00,62.4,53.4,29.75,NNE,30,5.0,19.0,72,0.00,,,0.00,WUHU216DAVISVP2,2013-04-15 17:45:00,
2013-04-15 13:50:00,62.3,53.3,29.75,NNE,25,9.0,19.0,72,0.00,,,0.00,WUHU216DAVISVP2,2013-04-15 17:50:00,
2013-04-15 13:55:00,62.1,53.1,29.75,NNE,22,9.0,18.0,72,0.00,,,0.00,WUHU216DAVISVP2,2013-04-15 17:55:00,
2013-04-15 14:00:00,62.1,53.5,29.75,NNE,27,21.0,21.0,73,0.00,,,0.00,WUHU216DAVISVP2,2013-04-15 18:00:00,
2013-04-15 14:05:00,62.1,53.5,29.75,NE,56,16.0,21.0,73,0.00,,,0.00,WUHU216DAVISVP2,2013-04-15 18:05:00,
2013-04-15 14:10:00,62.0,53.4,29.76,East,91,3.0,21.0,73,0.00,,,0.00,WUHU216DAVISVP2,2013-04-15 18:10:00,
2013-04-15 14:15:00,62.0,53.2,29.75,North,1,13.0,21.0,73,0.00,,,0.00,WUHU216DAVISVP2,2013-04-15 18:15:00,
2013-04-15 14:20:00,62.0,53.2,29.75,NNW,345,8.0,19.0,73,0.00,,,0.00,WUHU216DAVISVP2,2013-04-15 18:20:00,
2013-04-15 14:25:00,62.5,54.2,29.75,North,358,5.0,19.0,74,0.00,,,0.00,WUHU216DAVISVP2,2013-04-15 18:25:00,
2013-04-15 14:29:00,62.7,53.5,29.75,NNE,12,10.0,17.0,72,0.00,,,0.00,WUHU216DAVISVP2,2013-04-15 18:29:00,
2013-04-15 14:30:00,62.8,54.0,29.75,NNE,23,9.0,21.0,73,0.00,,,0.00,WUHU216DAVISVP2,2013-04-15 18:30:00,
2013-04-15 14:34:00,62.9,54.2,29.75,NW,314,7.0,20.0,73,0.00,,,0.00,WUHU216DAVISVP2,2013-04-15 18:34:00,
2013-04-15 14:39:00,63.0,54.0,29.75,NE,41,13.0,20.0,72,0.00,,,0.00,WUHU216DAVISVP2,2013-04-15 18:39:00,
2013-04-15 14:44:00,62.8,53.6,29.75,NNE,19,17.0,19.0,72,0.00,,,0.00,WUHU216DAVISVP2,2013-04-15 18:44:00,
2013-04-15 14:49:00,62.6,54.0,29.76,ENE,58,12.0,19.0,73,0.00,,,0.00,WUHU216DAVISVP2,2013-04-15 18:49:00,
2013-04-15 14:54:00,62.4,53.8,29.76,North,8,7.0,18.0,73,0.00,,,0.00,WUHU216DAVISVP2,2013-04-15 18:54:00,
2013-04-15 14:59:00,62.3,54.0,29.76,ENE,60,11.0,18.0,74,0.00,,,0.00,WUHU216DAVISVP2,2013-04-15 18:59:00,
2013-04-15 15:00:00,62.3,53.9,29.75,NE,45,10.0,20.0,74,0.00,,,0.00,WUHU216DAVISVP2,2013-04-15 19:00:00,
2013-04-15 15:04:00,62.2,53.8,29.75,NE,46,10.0,18.0,74,0.00,,,0.00,WUHU216DAVISVP2,2013-04-15 19:04:00,
2013-04-15 15:09:00,62.0,54.0,29.75,NNW,342,3.0,17.0,75,0.00,,,0.00,WUHU216DAVISVP2,2013-04-15 19:09:00,
2013-04-15 15:14:00,61.9,53.9,29.76,NNE,32,8.0,17.0,75,0.00,,,0.00,WUHU216DAVISVP2,2013-04-15 19:14:00,
2013-04-15 15:19:00,61.8,53.8,29.75,North,4,8.0,16.0,75,0.00,,,0.00,WUHU216DAVISVP2,2013-04-15 19:19:00,
2013-04-15 15:24:00,61.7,53.8,29.75,North,11,4.0,15.0,75,0.00,,,0.00,WUHU216DAVISVP2,2013-04-15 19:24:00,
2013-04-15 15:29:00,61.6,54.1,29.75,NNE,32,7.0,16.0,76,0.00,,,0.00,WUHU216DAVISVP2,2013-04-15 19:29:00,
2013-04-15 15:30:00,61.7,53.7,29.75,NNE,23,7.0,17.0,75,0.00,,,0.00,WUHU216DAVISVP2,2013-04-15 19:30:00,
2013-04-15 15:34:00,61.7,54.1,29.75,NW,316,4.0,17.0,76,0.00,,,0.00,WUHU216DAVISVP2,2013-04-15 19:34:00,
2013-04-15 15:39:00,61.8,54.2,29.75,NNE,26,5.0,17.0,76,0.00,,,0.00,WUHU216DAVISVP2,2013-04-15 19:39:00,
2013-04-15 15:45:00,61.8,54.3,29.75,NNE,32,7.0,16.0,76,0.00,,,0.00,WUHU216DAVISVP2,2013-04-15 19:45:00,
2013-04-15 15:50:00,61.7,54.1,29.75,NW,304,6.0,16.0,76,0.00,,,0.00,WUHU216DAVISVP2,2013-04-15 19:50:00,
2013-04-15 15:55:00,61.7,54.1,29.75,NE,48,5.0,13.0,76,0.00,,,0.00,WUHU216DAVISVP2,2013-04-15 19:55:00,
2013-04-15 15:57:00,61.7,54.1,29.75,North,356,6.0,13.0,76,0.00,,,0.00,WUHU216DAVISVP2,2013-04-15 19:57:00,
2013-04-15 15:58:00,61.7,54.1,29.75,NE,54,5.0,13.0,76,0.00,,,0.00,WUHU216DAVISVP2,2013-04-15 19:58:00,
2013-04-15 16:00:00,61.7,54.1,29.75,NE,45,7.0,15.0,76,0.00,,,0.00,WUHU216DAVISVP2,2013-04-15 20:00:00,
2013-04-15 16:01:00,61.7,54.1,29.75,North,351,4.0,15.0,76,0.00,,,0.00,WUHU216DAVISVP2,2013-04-15 20:01:00,
2013-04-15 16:02:00,61.7,54.1,29.75,NE,41,9.0,15.0,76,0.00,,,0.00,WUHU216DAVISVP2,2013-04-15 20:02:00,
2013-04-15 16:07:00,61.6,54.1,29.75,NNW,327,7.0,18.0,76,0.00,,,0.00,WUHU216DAVISVP2,2013-04-15 20:07:00,
2013-04-15 16:12:00,61.5,54.0,29.75,NE,50,3.0,19.0,76,0.00,,,0.00,WUHU216DAVISVP2,2013-04-15 20:12:00,
2013-04-15 16:17:00,61.5,54.3,29.75,NNE,28,5.0,19.0,77,0.00,,,0.00,WUHU216DAVISVP2,2013-04-15 20:17:00,
2013-04-15 16:22:00,61.6,54.0,29.74,ENE,61,10.0,18.0,76,0.00,,,0.00,WUHU216DAVISVP2,2013-04-15 20:22:00,
2013-04-15 16:27:00,61.6,54.0,29.74,NNE,16,3.0,18.0,76,0.00,,,0.00,WUHU216DAVISVP2,2013-04-15 20:27:00,
2013-04-15 16:30:00,61.6,54.0,29.75,NE,45,6.0,19.0,76,0.00,,,0.00,WUHU216DAVISVP2,2013-04-15 20:30:00,
2013-04-15 16:32:00,61.6,54.4,29.74,NNE,28,5.0,11.0,77,0.00,,,0.00,WUHU216DAVISVP2,2013-04-15 20:32:00,
2013-04-15 16:37:00,61.6,54.4,29.74,NNE,20,7.0,11.0,77,0.00,,,0.00,WUHU216DAVISVP2,2013-04-15 20:37:00,
2013-04-15 16:42:00,61.6,54.4,29.74,NE,46,4.0,15.0,77,0.00,,,0.00,WUHU216DAVISVP2,2013-04-15 20:42:00,
2013-04-15 16:47:00,61.6,54.4,29.74,NNE,19,4.0,15.0,77,0.00,,,0.00,WUHU216DAVISVP2,2013-04-15 20:47:00,
2013-04-15 16:52:00,61.6,54.4,29.75,NNE,32,5.0,15.0,77,0.00,,,0.00,WUHU216DAVISVP2,2013-04-15 20:52:00,
2013-04-15 16:57:00,61.7,54.5,29.74,East,85,4.0,15.0,77,0.00,,,0.00,WUHU216DAVISVP2,2013-04-15 20:57:00,
2013-04-15 17:00:00,61.7,54.4,29.74,NE,45,6.0,15.0,77,0.00,,,0.00,WUHU216DAVISVP2,2013-04-15 21:00:00,
2013-04-15 17:02:00,61.7,54.5,29.74,NE,53,5.0,13.0,77,0.00,,,0.00,WUHU216DAVISVP2,2013-04-15 21:02:00,
2013-04-15 17:07:00,61.6,54.3,29.74,NE,53,5.0,13.0,77,0.00,,,0.00,WUHU216DAVISVP2,2013-04-15 21:07:00,
2013-04-15 17:12:00,61.6,54.3,29.74,ENE,63,3.0,12.0,77,0.00,,,0.00,WUHU216DAVISVP2,2013-04-15 21:12:00,
2013-04-15 17:17:00,61.5,54.2,29.75,East,89,5.0,12.0,77,0.00,,,0.00,WUHU216DAVISVP2,2013-04-15 21:17:00,
2013-04-15 17:22:00,61.4,54.5,29.75,ENE,71,4.0,9.0,78,0.00,,,0.00,WUHU216DAVISVP2,2013-04-15 21:22:00,
2013-04-15 17:27:00,61.4,54.6,29.75,ENE,68,4.0,10.0,78,0.00,,,0.00,WUHU216DAVISVP2,2013-04-15 21:27:00,
2013-04-15 17:30:00,61.3,54.4,29.76,ENE,68,5.0,13.0,78,0.00,,,0.00,WUHU216DAVISVP2,2013-04-15 21:30:00,
2013-04-15 17:32:00,61.3,54.5,29.76,East,96,10.0,13.0,78,0.00,,,0.00,WUHU216DAVISVP2,2013-04-15 21:32:00,
2013-04-15 17:37:00,60.5,54.4,29.77,East,93,17.0,18.0,80,0.00,,,0.00,WUHU216DAVISVP2,2013-04-15 21:37:00,
2013-04-15 17:42:00,59.2,54.4,29.77,NE,40,9.0,20.0,84,0.01,,,0.01,WUHU216DAVISVP2,2013-04-15 21:42:00,
2013-04-15 17:47:00,58.0,54.4,29.78,East,95,11.0,20.0,88,0.02,,,0.02,WUHU216DAVISVP2,2013-04-15 21:47:00,
2013-04-15 17:52:00,57.1,54.5,29.77,ENE,75,9.0,18.0,91,0.03,,,0.03,WUHU216DAVISVP2,2013-04-15 21:52:00,
2013-04-15 17:57:00,56.4,54.1,29.78,ESE,106,6.0,18.0,92,0.04,,,0.04,WUHU216DAVISVP2,2013-04-15 21:57:00,
2013-04-15 18:00:00,56.0,54.3,29.77,East,90,9.0,20.0,94,0.00,,,0.00,WUHU216DAVISVP2,2013-04-15 22:00:00,
2013-04-15 18:02:00,55.9,54.2,29.78,ENE,75,9.0,18.0,94,0.06,,,0.06,WUHU216DAVISVP2,2013-04-15 22:02:00,
2013-04-15 18:07:00,55.7,54.3,29.77,ENE,57,5.0,18.0,95,0.09,,,0.09,WUHU216DAVISVP2,2013-04-15 22:07:00,
2013-04-15 18:12:00,55.5,54.1,29.77,East,84,7.0,16.0,95,0.09,,,0.09,WUHU216DAVISVP2,2013-04-15 22:12:00,
2013-04-15 18:17:00,55.3,53.9,29.77,East,93,9.0,15.0,95,0.10,,,0.10,WUHU216DAVISVP2,2013-04-15 22:17:00,
2013-04-15 18:22:00,55.2,54.0,29.77,ENE,63,10.0,15.0,96,0.10,,,0.10,WUHU216DAVISVP2,2013-04-15 22:22:00,
2013-04-15 18:27:00,55.1,53.9,29.77,East,84,4.0,13.0,96,0.12,,,0.12,WUHU216DAVISVP2,2013-04-15 22:27:00,
2013-04-15 18:30:00,55.0,53.9,29.77,ENE,68,7.0,15.0,96,0.06,,,0.06,WUHU216DAVISVP2,2013-04-15 22:30:00,
2013-04-15 18:32:00,55.0,53.9,29.77,ESE,112,6.0,13.0,96,0.14,,,0.14,WUHU216DAVISVP2,2013-04-15 22:32:00,
2013-04-15 18:37:00,55.0,53.8,29.77,East,98,5.0,12.0,96,0.16,,,0.16,WUHU216DAVISVP2,2013-04-15 22:37:00,
2013-04-15 18:42:00,55.0,54.1,29.79,East,85,4.0,11.0,97,0.16,,,0.17,WUHU216DAVISVP2,2013-04-15 22:42:00,
2013-04-15 18:47:00,55.0,54.1,29.78,ENE,73,5.0,12.0,97,0.17,,,0.19,WUHU216DAVISVP2,2013-04-15 22:47:00,
2013-04-15 18:52:00,54.9,54.0,29.78,NE,43,6.0,12.0,97,0.17,,,0.20,WUHU216DAVISVP2,2013-04-15 22:52:00,
2013-04-15 18:57:00,54.9,54.1,29.78,East,79,7.0,12.0,97,0.17,,,0.21,WUHU216DAVISVP2,2013-04-15 22:57:00,
2013-04-15 19:00:00,54.9,54.1,29.79,East,90,6.0,12.0,97,0.08,,,0.14,WUHU216DAVISVP2,2013-04-15 23:00:00,
2013-04-15 19:02:00,54.9,54.1,29.79,ENE,63,3.0,12.0,97,0.16,,,0.22,WUHU216DAVISVP2,2013-04-15 23:02:00,
2013-04-15 19:07:00,54.9,54.1,29.79,East,84,5.0,11.0,97,0.13,,,0.22,WUHU216DAVISVP2,2013-04-15 23:07:00,
2013-04-15 19:12:00,54.8,53.9,29.79,East,83,4.0,11.0,97,0.13,,,0.22,WUHU216DAVISVP2,2013-04-15 23:12:00,
2013-04-15 19:17:00,54.8,53.9,29.78,NE,52,6.0,11.0,97,0.12,,,0.22,WUHU216DAVISVP2,2013-04-15 23:17:00,
2013-04-15 19:22:00,54.8,53.9,29.78,East,96,4.0,11.0,97,0.13,,,0.23,WUHU216DAVISVP2,2013-04-15 23:22:00,
2013-04-15 19:27:00,54.7,53.8,29.78,East,91,4.0,9.0,97,0.11,,,0.23,WUHU216DAVISVP2,2013-04-15 23:27:00,
2013-04-15 19:30:00,54.7,53.9,29.78,East,90,5.0,11.0,97,0.08,,,0.22,WUHU216DAVISVP2,2013-04-15 23:30:00,
2013-04-15 19:32:00,54.7,53.8,29.78,East,82,7.0,11.0,97,0.09,,,0.23,WUHU216DAVISVP2,2013-04-15 23:32:00,
2013-04-15 19:37:00,54.7,53.8,29.78,ENE,63,4.0,11.0,97,0.07,,,0.23,WUHU216DAVISVP2,2013-04-15 23:37:00,
2013-04-15 19:42:00,54.6,53.7,29.79,ENE,63,7.0,11.0,97,0.06,,,0.23,WUHU216DAVISVP2,2013-04-15 23:42:00,
2013-04-15 19:47:00,54.6,53.7,29.79,ENE,75,6.0,11.0,97,0.05,,,0.24,WUHU216DAVISVP2,2013-04-15 23:47:00,
2013-04-15 19:52:00,54.4,53.5,29.79,East,92,6.0,11.0,97,0.04,,,0.24,WUHU216DAVISVP2,2013-04-15 23:52:00,
2013-04-15 19:57:00,54.2,53.3,29.79,East,101,7.0,13.0,97,0.03,,,0.24,WUHU216DAVISVP2,2013-04-15 23:57:00,
2013-04-15 20:00:00,54.1,53.3,29.80,East,90,5.0,13.0,97,0.01,,,0.23,WUHU216DAVISVP2,2013-04-16 00:00:00,
2013-04-15 20:02:00,54.1,53.2,29.79,SE,128,6.0,13.0,97,0.02,,,0.24,WUHU216DAVISVP2,2013-04-16 00:02:00,
2013-04-15 20:07:00,53.9,53.0,29.79,SE,127,8.0,11.0,97,0.02,,,0.24,WUHU216DAVISVP2,2013-04-16 00:07:00,
2013-04-15 20:12:00,53.7,52.8,29.78,ESE,103,4.0,11.0,97,0.03,,,0.25,WUHU216DAVISVP2,2013-04-16 00:12:00,
2013-04-15 20:17:00,53.7,52.9,29.78,ESE,110,2.0,11.0,97,0.03,,,0.25,WUHU216DAVISVP2,2013-04-16 00:17:00,
2013-04-15 20:22:00,53.6,52.7,29.78,East,90,3.0,11.0,97,0.03,,,0.26,WUHU216DAVISVP2,2013-04-16 00:22:00,
2013-04-15 20:27:00,53.6,52.7,29.78,East,86,3.0,9.0,97,0.03,,,0.26,WUHU216DAVISVP2,2013-04-16 00:27:00,
2013-04-15 20:30:00,53.5,52.7,29.78,East,90,4.0,11.0,97,0.01,,,0.24,WUHU216DAVISVP2,2013-04-16 00:30:00,
2013-04-15 20:32:00,53.5,52.6,29.79,NE,46,3.0,8.0,97,0.03,,,0.26,WUHU216DAVISVP2,2013-04-16 00:32:00,
2013-04-15 20:37:00,53.4,52.5,29.80,East,87,8.0,17.0,97,0.04,,,0.27,WUHU216DAVISVP2,2013-04-16 00:37:00,
2013-04-15 20:42:00,52.9,51.8,29.81,East,82,13.0,20.0,96,0.05,,,0.28,WUHU216DAVISVP2,2013-04-16 00:42:00,
2013-04-15 20:47:00,52.2,51.1,29.81,East,82,4.0,20.0,96,0.05,,,0.29,WUHU216DAVISVP2,2013-04-16 00:47:00,
2013-04-15 20:52:00,51.8,50.7,29.80,East,101,6.0,18.0,96,0.06,,,0.30,WUHU216DAVISVP2,2013-04-16 00:52:00,
2013-04-15 20:57:00,51.5,50.4,29.81,East,86,7.0,18.0,96,0.06,,,0.30,WUHU216DAVISVP2,2013-04-16 00:57:00,
2013-04-15 21:00:00,51.3,50.2,29.81,East,90,7.0,20.0,96,0.02,,,0.26,WUHU216DAVISVP2,2013-04-16 01:00:00,
2013-04-15 21:02:00,51.2,50.1,29.81,ESE,116,5.0,12.0,96,0.07,,,0.31,WUHU216DAVISVP2,2013-04-16 01:02:00,
2013-04-15 21:07:00,50.9,49.8,29.81,SE,138,6.0,11.0,96,0.07,,,0.31,WUHU216DAVISVP2,2013-04-16 01:07:00,
2013-04-15 21:12:00,50.5,48.8,29.80,SE,139,5.0,11.0,94,0.06,,,0.31,WUHU216DAVISVP2,2013-04-16 01:12:00,
2013-04-15 21:17:00,50.2,47.9,29.81,SE,137,3.0,10.0,92,0.06,,,0.31,WUHU216DAVISVP2,2013-04-16 01:17:00,
2013-04-15 21:22:00,50.0,47.4,29.81,SE,133,5.0,11.0,91,0.05,,,0.31,WUHU216DAVISVP2,2013-04-16 01:22:00,
2013-04-15 21:27:00,49.9,47.3,29.82,SE,146,2.0,11.0,91,0.05,,,0.31,WUHU216DAVISVP2,2013-04-16 01:27:00,
2013-04-15 21:30:00,49.7,47.5,29.82,SE,135,4.0,11.0,92,0.05,,,0.31,WUHU216DAVISVP2,2013-04-16 01:30:00,
2013-04-15 21:32:00,49.7,47.4,29.82,ESE,102,3.0,11.0,92,0.06,,,0.32,WUHU216DAVISVP2,2013-04-16 01:32:00,
2013-04-15 21:37:00,49.6,47.7,29.82,East,98,1.0,11.0,93,0.05,,,0.32,WUHU216DAVISVP2,2013-04-16 01:37:00,
2013-04-15 21:42:00,49.3,47.4,29.82,ESE,117,2.0,7.0,93,0.05,,,0.33,WUHU216DAVISVP2,2013-04-16 01:42:00,
2013-04-15 21:47:00,49.1,47.4,29.81,SE,138,2.0,3.0,94,0.04,,,0.33,WUHU216DAVISVP2,2013-04-16 01:47:00,
2013-04-15 21:52:00,48.9,47.2,29.82,SE,126,0.0,3.0,94,0.03,,,0.33,WUHU216DAVISVP2,2013-04-16 01:52:00,
2013-04-15 21:57:00,48.9,47.5,29.82,SE,126,0.0,3.0,95,0.03,,,0.33,WUHU216DAVISVP2,2013-04-16 01:57:00,
2013-04-15 22:00:00,48.8,47.4,29.82,SE,135,1.0,4.0,95,0.01,,,0.32,WUHU216DAVISVP2,2013-04-16 02:00:00,
2013-04-15 22:02:00,48.8,47.4,29.82,SE,125,0.0,3.0,95,0.02,,,0.33,WUHU216DAVISVP2,2013-04-16 02:02:00,
2013-04-15 22:07:00,48.7,47.3,29.82,SE,125,0.0,2.0,95,0.02,,,0.33,WUHU216DAVISVP2,2013-04-16 02:07:00,
2013-04-15 22:12:00,48.6,47.2,29.81,SE,124,0.0,0.0,95,0.03,,,0.34,WUHU216DAVISVP2,2013-04-16 02:12:00,
2013-04-15 22:17:00,48.5,47.1,29.81,SE,124,0.0,0.0,95,0.03,,,0.34,WUHU216DAVISVP2,2013-04-16 02:17:00,
2013-04-15 22:22:00,48.4,47.0,29.82,ESE,107,2.0,2.0,95,0.03,,,0.34,WUHU216DAVISVP2,2013-04-16 02:22:00,
2013-04-15 22:27:00,48.3,46.9,29.82,SE,133,1.0,3.0,95,0.03,,,0.34,WUHU216DAVISVP2,2013-04-16 02:27:00,
2013-04-15 22:30:00,48.3,46.9,29.81,SE,135,1.0,4.0,95,0.01,,,0.33,WUHU216DAVISVP2,2013-04-16 02:30:00,
2013-04-15 22:32:00,48.3,46.9,29.81,ESE,123,1.0,4.0,95,0.02,,,0.34,WUHU216DAVISVP2,2013-04-16 02:32:00,
2013-04-15 22:37:00,48.3,46.9,29.81,ENE,77,0.0,4.0,95,0.03,,,0.35,WUHU216DAVISVP2,2013-04-16 02:37:00,
2013-04-15 22:42:00,48.2,46.8,29.81,ENE,77,0.0,4.0,95,0.02,,,0.35,WUHU216DAVISVP2,2013-04-16 02:42:00,
2013-04-15 22:47:00,48.1,46.7,29.82,ENE,77,2.0,4.0,95,0.03,,,0.36,WUHU216DAVISVP2,2013-04-16 02:47:00,
2013-04-15 22:52:00,48.0,46.9,29.82,ESE,103,4.0,4.0,96,0.04,,,0.37,WUHU216DAVISVP2,2013-04-16 02:52:00,
2013-04-15 22:57:00,47.8,46.7,29.82,ENE,61,1.0,4.0,96,0.04,,,0.37,WUHU216DAVISVP2,2013-04-16 02:57:00,
2013-04-15 23:00:00,47.8,46.7,29.83,ENE,68,1.0,4.0,96,0.01,,,0.34,WUHU216DAVISVP2,2013-04-16 03:00:00,
2013-04-15 23:02:00,47.8,46.7,29.83,NE,56,1.0,4.0,96,0.05,,,0.38,WUHU216DAVISVP2,2013-04-16 03:02:00,
2013-04-15 23:07:00,47.6,46.5,29.83,ENE,77,4.0,4.0,96,0.09,,,0.42,WUHU216DAVISVP2,2013-04-16 03:07:00,
2013-04-15 23:12:00,47.4,46.3,29.82,East,90,0.0,5.0,96,0.12,,,0.46,WUHU216DAVISVP2,2013-04-16 03:12:00,
2013-04-15 23:17:00,47.2,46.1,29.82,ESE,112,1.0,5.0,96,0.14,,,0.48,WUHU216DAVISVP2,2013-04-16 03:17:00,
2013-04-15 23:22:00,47.0,45.9,29.82,East,96,2.0,5.0,96,0.15,,,0.49,WUHU216DAVISVP2,2013-04-16 03:22:00,
2013-04-15 23:27:00,46.9,45.8,29.82,ESE,105,5.0,7.0,96,0.17,,,0.51,WUHU216DAVISVP2,2013-04-16 03:27:00,
2013-04-15 23:30:00,46.7,45.6,29.82,East,90,2.0,7.0,96,0.04,,,0.38,WUHU216DAVISVP2,2013-04-16 03:30:00,
2013-04-15 23:32:00,46.6,45.5,29.82,ENE,67,4.0,7.0,96,0.19,,,0.53,WUHU216DAVISVP2,2013-04-16 03:32:00,
2013-04-15 23:37:00,46.4,45.3,29.82,East,85,6.0,7.0,96,0.20,,,0.55,WUHU216DAVISVP2,2013-04-16 03:37:00,
2013-04-15 23:42:00,46.2,45.1,29.83,SE,128,4.0,7.0,96,0.21,,,0.56,WUHU216DAVISVP2,2013-04-16 03:42:00,
2013-04-15 23:47:00,46.1,45.0,29.84,East,79,5.0,8.0,96,0.24,,,0.60,WUHU216DAVISVP2,2013-04-16 03:47:00,
2013-04-15 23:52:00,46.0,44.9,29.84,East,94,4.0,8.0,96,0.26,,,0.63,WUHU216DAVISVP2,2013-04-16 03:52:00,
2013-04-15 23:57:00,45.9,45.1,29.84,ENE,76,2.0,9.0,97,0.28,,,0.65,WUHU216DAVISVP2,2013-04-16 03:57:00,